Location: Skalnate Pleso
(49.1889°N, 20.2450°E)
Time: 16:37:41
(UTC+02:00)

Cosmos 1605 Rocket - Pass Details

Date: 26 February 2020
Orbit: 944 x 1007 km, 82.9° (Epoch: 06 April)

Event Time Altitude Azimuth Distance (km) Brightness Sun altitude
Rises 01:50:27 0° 356° (N) 3,681 7.5 -42.8°
Reaches altitude 10° 01:53:24 10° 8° (N) 2,719 6.8 -42.5°
Enters shadow 01:57:29 26° 48° (NE) 1,787 5.8 -42.0°
